Regional Weather Roundup
Issued by NWS

Home | Current Version | Previous Version | Graphics & Text | Print | Product List | Glossary On
Versions: 1 2 3 4 5 6 7 8 9 10 11 12 13 14 15 16 17 18 19 20 21 22 23 24 25 26 27 28 29 30 31 32 33 34 35 36 37 38 39 40 41 42 43 44 45 46 47 48 49 50
000
ASUS45 KSLC 261510
RWRUT

UTAH REGIONAL WEATHER ROUNDUP
NATIONAL WEATHER SERVICE SALT LAKE CITY UT
900 AM MDT MON SEP 26 2016

UTZ001>011-023>025-261600-

NORTHERN UTAH

CITY           SKY/WX    TMP DP  RH WIND       PRES   REMARKS
BRIGHAM CITY     N/A     49  43  81 N5        30.44S
DUGWAY         SUNNY     51  43  74 E2        30.44S
HILL AFB       SUNNY     51  38  63 E15       30.43S
LOGAN          SUNNY     46  44  93 CALM      30.46S
OGDEN          SUNNY     55  41  59 NE6       30.43R
PROVO AIRPORT  SUNNY     48  41  76 CALM      30.46S
SALT LAKE CITY SUNNY     54  45  71 SE8       30.42S
VERNAL         SUNNY     48  42  80 CALM      30.49S
WENDOVER       SUNNY     52  41  66 SE3       30.43R
HEBER CITY     SUNNY     41  36  81 CALM      30.49S
WEST JORDAN    SUNNY     54  45  71 S5        30.44S

$$

UTZ012>022-026-027-261600-

SOUTHERN/CENTRAL UTAH

CITY           SKY/WX    TMP DP  RH WIND       PRES   REMARKS
BLANDING       SUNNY     57  34  42 CALM      30.55R
BRYCE CANYON   SUNNY     43  31  62 W6        30.54S
CEDAR CITY     SUNNY     50  38  63 SW6       30.44R
DELTA          SUNNY     45  41  87 CALM      30.44S
MILFORD        SUNNY     48  40  73 CALM      30.44S
MOAB/CYNLANDS  SUNNY     57  38  48 CALM      30.42R
PRICE          SUNNY     55  37  50 CALM      30.47R
ST GEORGE      SUNNY     61  36  39 S3        30.33R

$$

REGIONAL REPORTS     COLORADO/ARIZONA

CITY           SKY/WX    TMP DP  RH WIND       PRES   REMARKS
CRAIG, CO      SUNNY     40  35  83 CALM      30.52F
GRAND JUNCTION SUNNY     54  39  57 SE14      30.46S
RIFLE          SUNNY     47  39  74 N5        30.51R
MONTROSE       SUNNY     48  37  65 S5        30.52S
CORTEZ         SUNNY     52  41  66 CALM      30.48S
PAGE, AZ       SUNNY     62  34  35 W3        30.39R
GRAND CANYON   SUNNY     58  31  35 E10       30.47R
KINGMAN        SUNNY     67  29  24 CALM      30.25R
FLAGSTAFF      SUNNY     54  35  48 NE16      30.46S

$$

REGIONAL REPORTS    NEVADA/IDAHO/WYOMING

CITY           SKY/WX    TMP DP  RH WIND       PRES   REMARKS
LAS VEGAS, NV  MOSUNNY   71  29  21 S3        30.21R
ELY            SUNNY     41  29  62 S7        30.49S
ELKO           SUNNY     48  38  68 CALM      30.43S
POCATELLO, ID  SUNNY     45  40  82 CALM      30.46S
BURLEY         SUNNY     46  42  86 CALM      30.42S
EVANSTON, WY   CLOUDY    45  34  65 SW5       30.52S
ROCK SPRINGS   SUNNY     46  37  71 S3        30.50S

$$



USA.gov is the U.S. government's official web portal to all federal, state and local government web resources and services.